TimeMDT,TemperatureF,Dew PointF,Humidity,Sea Level PressureIn,VisibilityMPH,Wind Direction,Wind SpeedMPH,Gust SpeedMPH,PrecipitationIn,Events,Conditions,WindDirDegrees,DateUTC
12:15 AM,64.4,33.8,32,30.34,10.0,West,16.1,23.0,N/A,,Clear,260,2014-08-16 06:15:00
12:35 AM,64.4,32.0,30,30.34,10.0,West,15.0,-,N/A,,Clear,260,2014-08-16 06:35:00
12:55 AM,64.4,32.0,30,30.34,10.0,West,18.4,-,N/A,,Clear,260,2014-08-16 06:55:00
1:15 AM,64.4,32.0,30,30.34,10.0,West,15.0,-,N/A,,Clear,280,2014-08-16 07:15:00
1:35 AM,64.4,32.0,30,30.34,10.0,West,15.0,-,N/A,,Clear,280,2014-08-16 07:35:00
1:55 AM,64.4,32.0,30,30.34,10.0,WNW,12.7,-,N/A,,Clear,290,2014-08-16 07:55:00
2:15 AM,64.4,32.0,30,30.34,10.0,West,5.8,-,N/A,,Clear,270,2014-08-16 08:15:00
2:35 AM,64.4,33.8,32,30.34,10.0,West,10.4,-,N/A,,Clear,270,2014-08-16 08:35:00
2:55 AM,64.4,33.8,32,30.34,10.0,WSW,8.1,-,N/A,,Clear,240,2014-08-16 08:55:00
3:15 AM,62.6,39.2,42,30.35,10.0,SE,3.5,-,N/A,,Clear,140,2014-08-16 09:15:00
3:35 AM,62.6,41.0,45,30.35,7.0,SSE,5.8,-,N/A,,Clear,150,2014-08-16 09:35:00
3:55 AM,62.6,41.0,45,30.35,10.0,SE,3.5,-,N/A,,Clear,140,2014-08-16 09:55:00
4:15 AM,62.6,39.2,42,30.35,10.0,SE,3.5,-,N/A,,Clear,140,2014-08-16 10:15:00
4:35 AM,62.6,41.0,45,30.35,10.0,SE,4.6,-,N/A,,Clear,130,2014-08-16 10:35:00
4:55 AM,62.6,41.0,45,30.35,10.0,SE,5.8,-,N/A,,Clear,140,2014-08-16 10:55:00
5:15 AM,62.6,41.0,45,30.35,10.0,SE,4.6,-,N/A,,Scattered Clouds,130,2014-08-16 11:15:00
5:35 AM,62.6,41.0,45,30.36,10.0,SE,4.6,-,N/A,,Scattered Clouds,140,2014-08-16 11:35:00
5:55 AM,62.6,41.0,45,30.36,10.0,SSE,4.6,-,N/A,,Clear,160,2014-08-16 11:55:00
6:15 AM,62.6,37.4,39,30.36,10.0,South,9.2,-,N/A,,Clear,190,2014-08-16 12:15:00
6:35 AM,62.6,35.6,37,30.36,10.0,South,8.1,-,N/A,,Clear,180,2014-08-16 12:35:00
6:55 AM,60.8,41.0,48,30.36,10.0,SE,5.8,-,N/A,,Clear,130,2014-08-16 12:55:00
7:15 AM,60.8,41.0,48,30.36,10.0,SSE,6.9,-,N/A,,Clear,150,2014-08-16 13:15:00
7:35 AM,60.8,41.0,48,30.37,10.0,SE,3.5,-,N/A,,Clear,140,2014-08-16 13:35:00
7:55 AM,62.6,41.0,45,30.37,10.0,SSE,4.6,-,N/A,,Clear,160,2014-08-16 13:55:00
8:15 AM,62.6,42.8,48,30.37,10.0,South,3.5,-,N/A,,Clear,170,2014-08-16 14:15:00
8:35 AM,64.4,41.0,42,30.37,10.0,South,3.5,-,N/A,,Clear,180,2014-08-16 14:35:00
8:55 AM,64.4,41.0,42,30.37,10.0,South,4.6,-,N/A,,Clear,190,2014-08-16 14:55:00
9:15 AM,64.4,41.0,42,30.37,10.0,South,3.5,-,N/A,,Clear,170,2014-08-16 15:15:00
9:35 AM,66.2,37.4,35,30.38,10.0,South,5.8,-,N/A,,Clear,190,2014-08-16 15:35:00
9:55 AM,68.0,39.2,35,30.38,10.0,SW,6.9,-,N/A,,Clear,220,2014-08-16 15:55:00
10:15 AM,68.0,35.6,30,30.38,10.0,SSW,9.2,-,N/A,,Clear,200,2014-08-16 16:15:00
10:35 AM,69.8,33.8,27,30.38,10.0,SW,12.7,18.4,N/A,,Clear,230,2014-08-16 16:35:00
10:55 AM,69.8,32.0,25,30.38,10.0,WSW,13.8,26.5,N/A,,Clear,240,2014-08-16 16:55:00
11:15 AM,69.8,32.0,25,30.38,10.0,WSW,17.3,25.3,N/A,,Clear,250,2014-08-16 17:15:00
11:35 AM,71.6,32.0,23,30.38,10.0,West,16.1,23.0,N/A,,Clear,260,2014-08-16 17:35:00
11:55 AM,71.6,32.0,23,30.38,10.0,SSW,12.7,20.7,N/A,,Clear,200,2014-08-16 17:55:00
12:15 PM,71.6,32.0,23,30.38,10.0,WSW,13.8,20.7,N/A,,Clear,250,2014-08-16 18:15:00
12:35 PM,71.6,33.8,25,30.36,10.0,SSE,13.8,19.6,N/A,,Clear,150,2014-08-16 18:35:00
12:55 PM,73.4,33.8,23,30.36,10.0,SSE,11.5,24.2,N/A,,Clear,160,2014-08-16 18:55:00
1:15 PM,73.4,33.8,23,30.36,10.0,South,9.2,24.2,N/A,,Scattered Clouds,170,2014-08-16 19:15:00
1:35 PM,71.6,33.8,25,30.35,10.0,SSE,11.5,17.3,N/A,,Clear,160,2014-08-16 19:35:00
1:55 PM,73.4,33.8,23,30.35,10.0,South,15.0,18.4,N/A,,Clear,170,2014-08-16 19:55:00
2:15 PM,73.4,32.0,22,30.35,10.0,SSE,10.4,26.5,N/A,,Clear,150,2014-08-16 20:15:00
2:35 PM,73.4,33.8,23,30.34,10.0,SE,10.4,20.7,N/A,,Clear,130,2014-08-16 20:35:00
2:55 PM,73.4,32.0,22,30.34,10.0,SSE,6.9,-,N/A,,Scattered Clouds,160,2014-08-16 20:55:00
3:15 PM,77.0,30.2,18,30.34,10.0,SSE,8.1,17.3,N/A,,Scattered Clouds,160,2014-08-16 21:15:00
3:35 PM,77.0,30.2,18,30.34,10.0,SSW,13.8,19.6,N/A,,Clear,210,2014-08-16 21:35:00
3:55 PM,77.0,28.4,17,30.34,10.0,South,15.0,23.0,N/A,,Scattered Clouds,190,2014-08-16 21:55:00
4:15 PM,77.0,28.4,17,30.34,10.0,SW,13.8,23.0,N/A,,Scattered Clouds,220,2014-08-16 22:15:00
4:35 PM,77.0,28.4,17,30.33,10.0,SW,18.4,25.3,N/A,,Clear,230,2014-08-16 22:35:00
4:55 PM,77.0,28.4,17,30.33,10.0,WSW,16.1,24.2,N/A,,Clear,240,2014-08-16 22:55:00
5:15 PM,77.0,28.4,17,30.33,10.0,SW,18.4,29.9,N/A,,Clear,230,2014-08-16 23:15:00
5:35 PM,77.0,28.4,17,30.32,10.0,SW,17.3,25.3,N/A,,Clear,230,2014-08-16 23:35:00
5:55 PM,77.0,28.4,17,30.32,10.0,SW,19.6,26.5,N/A,,Clear,220,2014-08-16 23:55:00
6:15 PM,77.0,28.4,17,30.32,10.0,WSW,21.9,29.9,N/A,,Clear,240,2014-08-17 00:15:00
6:35 PM,75.2,28.4,18,30.32,10.0,WSW,20.7,26.5,N/A,,Clear,240,2014-08-17 00:35:00
6:55 PM,73.4,30.2,20,30.32,10.0,SW,19.6,25.3,N/A,,Clear,230,2014-08-17 00:55:00
7:15 PM,73.4,28.4,19,30.32,10.0,WSW,21.9,26.5,N/A,,Clear,240,2014-08-17 01:15:00
7:35 PM,71.6,28.4,20,30.32,10.0,SW,18.4,24.2,N/A,,Clear,230,2014-08-17 01:35:00
7:55 PM,71.6,30.2,22,30.33,10.0,WSW,19.6,24.2,N/A,,Clear,240,2014-08-17 01:55:00
8:15 PM,69.8,28.4,21,30.33,10.0,WSW,19.6,25.3,N/A,,Clear,240,2014-08-17 02:15:00
8:35 PM,69.8,30.2,23,30.34,10.0,WSW,20.7,-,N/A,,Clear,240,2014-08-17 02:35:00
8:55 PM,69.8,30.2,23,30.34,10.0,WSW,17.3,23.0,N/A,,Clear,250,2014-08-17 02:55:00
9:15 PM,68.0,30.2,24,30.35,10.0,West,15.0,-,N/A,,Clear,280,2014-08-17 03:15:00
9:35 PM,68.0,30.2,24,30.36,10.0,West,16.1,-,N/A,,Clear,280,2014-08-17 03:35:00
9:55 PM,68.0,30.2,24,30.36,10.0,WNW,15.0,-,N/A,,Clear,290,2014-08-17 03:55:00
10:15 PM,68.0,32.0,26,30.36,10.0,NW,13.8,-,N/A,,Clear,310,2014-08-17 04:15:00
10:35 PM,68.0,32.0,26,30.36,10.0,NW,12.7,-,N/A,,Clear,310,2014-08-17 04:35:00
10:55 PM,68.0,32.0,26,30.36,10.0,WNW,11.5,-,N/A,,Clear,300,2014-08-17 04:55:00
11:15 PM,66.2,32.0,28,30.36,10.0,WNW,11.5,-,N/A,,Clear,300,2014-08-17 05:15:00
11:35 PM,64.4,32.0,30,30.37,10.0,West,9.2,-,N/A,,Clear,270,2014-08-17 05:35:00
11:55 PM,66.2,32.0,28,30.37,10.0,West,8.1,-,N/A,,Clear,260,2014-08-17 05:55:00